Regional Weather Roundup
Issued by NWS

Home | Current Version | Previous Version | Text Only | Print | Product List | Glossary On
Versions: 1 2 3 4 5 6 7 8 9 10 11 12 13 14 15 16 17 18 19 20 21 22 23 24 25 26 27 28 29 30 31 32 33 34 35 36 37 38 39 40 41 42 43 44 45 46 47 48 49 50
000
ASUS43 KLSX 270110
RWRMO

WEATHER SUMMARY FOR MISSOURI
NATIONAL WEATHER SERVICE SPRINGFIELD MO
800 PM CDT WED JUL 26 2017

NOTE: "FAIR" INDICATES FEW OR NO CLOUDS BELOW 12,000 FEET WITH NO
       SIGNIFICANT WEATHER AND/OR OBSTRUCTIONS TO VISIBILITY.
       CURRENT SKY AND/OR WEATHER CONDITIONS ARE NOT AVAILABLE FOR
       CHILLICOTHE AND FARMINGTON.

MOZ001>031-035>038-043-044-053-054-270200-
...NORTHERN AND WESTERN MISSOURI...

CITY           SKY/WX    TMP DP  RH WIND       PRES   REMARKS
KANSAS CTY INT CLOUDY    79  77  94 SE7       29.95F
KANSAS C DTWN  CLOUDY    80  77  90 E5        29.94F
LEE`S SUMMIT   LGT RAIN  77  76  96 NE7       29.97S
ST JOSEPH      CLOUDY    81  78  91 CALM      29.95F
CHILLICOTHE      N/A     80  80 100 CALM      29.96F
KIRKSVILLE     MOCLDY    79  73  82 CALM      29.98F

$$
MOZ066>068-077>081-088>096-101>105-270200-
...SOUTHWEST MISSOURI...

CITY           SKY/WX    TMP DP  RH WIND       PRES   REMARKS
SPRINGFIELD    CLEAR     88  71  57 S12       30.00S HX  94
JOPLIN         CLEAR     91  72  53 S14       29.97S HX  98
BRANSON        MOCLDY    86  70  58 S3        30.03F HX  90

$$
MOZ032>034-039>042-045>050-055>058-069>072-270200-
...CENTRAL MISSOURI...

CITY           SKY/WX    TMP DP  RH WIND       PRES   REMARKS
COLUMBIA       CLOUDY    86  79  79 N5        29.98R HX  99
JEFFERSON CITY CLOUDY    88  79  74 CALM      29.95R HX 103
ROLLA          PTCLDY    87  74  64 CALM      30.00R HX  95
SEDALIA        CLOUDY    83  82  97 N5        29.98S HX  98
WHITEMAN AFB   CLOUDY    81  81 100 NE6       29.95F HX  92
WARRENSBURG    DRIZZLE   79  73  83 N5        29.96F
OSAGE BEACH    MOCLDY    88  72  58 CALM      29.98R HX  94

$$
MOZ051-052-059>065-270200-
...EAST CENTRAL MISSOURI...

CITY           SKY/WX    TMP DP  RH WIND       PRES   REMARKS
ST LOUIS INTL  CLOUDY    89  71  55 SE12      29.97R HX  95
SPIRIT OF STL  CLOUDY    87  78  74 S3        29.94R HX 100
ST CHARLES     CLOUDY    88  80  77 SE3       29.94R HX 104

$$
MOZ072>076-082>087-097>100-106>115-270200-
...SOUTH CENTRAL AND SOUTHEAST MISSOURI...

CITY           SKY/WX    TMP DP  RH WIND       PRES   REMARKS
CAPE GIRARDEAU CLOUDY    84  74  71 S7        29.98R HX  91
FARMINGTON     PTCLDY    84  74  71 E5        30.01R HX  91
POPLAR BLUFF   CLOUDY    86  76  71 S8        29.98R HX  96
WEST PLAINS    CLOUDY    87  70  56 S3        30.04R HX  92

$$



USA.gov is the U.S. government's official web portal to all federal, state and local government web resources and services.